Flag for Germany Weather past 2 weeks in Prenzlau, Brandenburg, Germany

Now
48 °F

Fog.


Feels Like: 45 °F
Forecast: 45 / 57 °F
Wind: 8 mph from South

Location: Szczecin Airport

Current Time: Oct 26, 2014 at 10:50:16 AM

Latest Report: Oct 26, 2014 at 10:00 AM


Visibility: 2 mi

Pressure: 30.27 "Hg

Humidity: 100%

Dew point: 48 °F

Location of PrenzlauLocation

Historic Weather in Prenzlau — Graph

°F

Prenzlau temperature yesterday

Maximum temperature yesterday: 41 °F (at 12:00 AM)
Minimum temperature yesterday: 34 °F (at 7:00 AM)
Average temperature yesterday: 39 °F

Past Weeks' High & Low Weather Summary

 TemperatureHumidityPressure
High68 °F (Oct 19, 3:30 PM)100% (Oct 11, 3:00 PM)30.30 "Hg (Oct 11, 3:00 PM)
Low34 °F (Oct 25, 7:00 AM)46% (Oct 24, 5:30 PM)29.45 "Hg (Oct 21, 11:30 PM)
Average52 °F94%29.91 "Hg
* Reported Oct 11 10:00 AM — Oct 26 9:30 AM, Prenzlau, Weather by CustomWeather, © 2014

Note: Actual official high and low records may vary slightly from our data, if they occured in-between our weather recording intervals... More about our weather records

Advertising

Prenzlau weather history for previous 24 hours

 ConditionsComfort  
Time TempWeatherWind HumidityBarometerVisibility
9:30 AM
Oct 26
48 °FFog.6 mph100%30.27 "Hg1 mi
9:00 AM46 °FFog.7 mph100%30.27 "Hg1 mi
8:30 AM45 °FFog.3 mph100%30.27 "Hg1 mi
8:00 AM45 °FFog.5 mph100%30.24 "Hg0 mi
7:30 AM45 °FFog.5 mph100%30.24 "Hg0 mi
7:00 AM45 °FFog.3 mph93%30.24 "Hg0 mi
6:30 AM45 °FFog.5 mph93%30.24 "Hg1 mi
6:00 AM45 °FFog.7 mph93%30.24 "Hg1 mi
5:30 AM45 °FFog.3 mph93%30.21 "Hg1 mi
5:00 AM43 °FFog.2 mph100%30.24 "Hg1 mi
4:30 AM45 °FFog.3 mph93%30.24 "Hg1 mi
4:00 AM43 °FFog.2 mph100%30.24 "Hg1 mi
3:30 AM43 °FFog.5 mph100%30.21 "Hg1 mi
3:00 AM43 °FFog.5 mph93%30.21 "Hg1 mi
2:30 AM43 °FFog.3 mph93%30.21 "Hg1 mi
2:00 AM43 °FFog.5 mph93%30.21 "Hg1 mi
2:30 AM43 °FFog.6 mph93%30.21 "Hg1 mi
2:00 AM41 °FFog.6 mph100%30.21 "Hg1 mi
1:30 AM41 °FFog.6 mph100%30.18 "Hg1 mi
1:00 AM41 °FFog.7 mph93%30.18 "Hg2 mi
12:30 AM41 °FFog.7 mph93%30.18 "Hg2 mi
12:00 AM41 °FFog.8 mph93%30.18 "Hg2 mi
11:30 PM
Oct 25
41 °FFog.7 mph93%30.18 "Hg2 mi
11:00 PM41 °FFog.7 mph93%30.18 "Hg1 mi
10:30 PM41 °FFog.8 mph93%30.18 "Hg1 mi
10:00 PM41 °FFog.8 mph93%30.18 "Hg2 mi
9:30 PM41 °FFog.9 mph93%30.18 "Hg2 mi
9:00 PM41 °FFog.10 mph93%30.18 "Hg2 mi
8:30 PM41 °FFog.10 mph93%30.18 "Hg2 mi
8:00 PM41 °FFog.9 mph93%30.18 "Hg2 mi
7:30 PM41 °FFog.9 mph93%30.15 "Hg2 mi
7:00 PM41 °FFog.10 mph87%30.15 "Hg3 mi
6:30 PM41 °FFog.10 mph87%30.15 "Hg3 mi
6:00 PM41 °FFog.9 mph87%30.15 "Hg3 mi
5:30 PM41 °FFog.10 mph87%30.15 "Hg3 mi
5:00 PM41 °FFog.10 mph87%30.15 "Hg3 mi
4:30 PM41 °FFog.14 mph87%30.15 "Hg3 mi
4:00 PM41 °FFog.13 mph87%30.15 "Hg3 mi
3:30 PM39 °FFog.10 mph93%30.15 "Hg3 mi
3:00 PM39 °FFog.13 mph93%30.15 "Hg3 mi
2:30 PM39 °FFog.9 mph93%30.15 "Hg3 mi
2:00 PM39 °FPartly sunny.13 mph87%30.15 "Hg4 mi
1:30 PM39 °FFog.15 mph87%30.15 "Hg3 mi
1:00 PM39 °FFog.12 mph87%30.15 "Hg3 mi
12:30 PM37 °FPartly sunny.12 mph93%30.15 "Hg4 mi
12:00 PM37 °FPartly sunny.12 mph87%30.15 "Hg4 mi
11:30 AM37 °FPartly sunny.12 mph87%30.15 "Hg4 mi
11:00 AM36 °FPartly sunny.13 mph93%30.15 "Hg4 mi
10:30 AM36 °FPartly sunny.14 mph93%30.15 "Hg4 mi
10:00 AM36 °FPartly sunny.10 mph93%30.15 "Hg4 mi
Weather by CustomWeather, © 2014

See weather overviewHow to use our weather pages